When you browse on this site, cookies collect data to enhance your experience and personalize the content and advertising you see.
Visit our Privacy Policy to learn more. By continuing to use the site, you agree to this use of cookies and data.
  • In Spain
  • List of Countries
  • For 7 days
  • Water Temperature
  • Satellite Maps
  • Weather Map
  • Weather Widgets
  • user-avatar
    Login

    Hourly Weather Vonlyarovo

    Today, 15 July, Monday

    Time Temperature Precipitation Wind Pressure Humidity
    00:00 +13°C° 0 mm 1 mps 740 mmHg 90%
    01:00 +12°C° 0 mm 1 mps 740 mmHg 91%
    02:00 +11°C° 0 mm 1 mps 740 mmHg 90%
    03:00 +12°C° 0 mm 1 mps 740 mmHg 90%
    04:00 +11°C° 0 mm 0 mps 740 mmHg 90%
    05:00 +11°C° 0 mm 0 mps 740 mmHg 89%
    06:00 +12°C° 0 mm 0 mps 740 mmHg 85%
    07:00 +14°C° 0 mm 0 mps 740 mmHg 81%
    08:00 +15°C° 0 mm 0 mps 740 mmHg 78%
    09:00 +18°C° 0.3 mm 1 mps 740 mmHg 75%
    10:00 +19°C° 0.3 mm 1 mps 740 mmHg 73%
    11:00 +19°C° 0.3 mm 2 mps 740 mmHg 70%
    12:00 +20°C° 0.3 mm 1 mps 740 mmHg 69%
    13:00 +21°C° 0.3 mm 1 mps 740 mmHg 68%
    14:00 +21°C° 0 mm 1 mps 740 mmHg 64%
    15:00 +20°C° 0.3 mm 2 mps 740 mmHg 66%
    16:00 +20°C° 0.3 mm 2 mps 740 mmHg 69%
    17:00 +19°C° 0.3 mm 2 mps 740 mmHg 71%
    18:00 +18°C° 0.1 mm 2 mps 740 mmHg 77%
    19:00 +16°C° 0.1 mm 2 mps 740 mmHg 82%
    20:00 +15°C° 0.1 mm 2 mps 739 mmHg 87%
    21:00 +14°C° 0 mm 2 mps 739 mmHg 89%
    22:00 +13°C° 0 mm 1 mps 739 mmHg 91%
    23:00 +12°C° 0 mm 1 mps 739 mmHg 92%

    Tomorrow, 16 July, Tuesday

    Time Temperature Precipitation Wind Pressure Humidity
    00:00 +12°C° 0 mm 1 mps 739 mmHg 93%
    01:00 +12°C° 0 mm 1 mps 740 mmHg 93%
    02:00 +11°C° 0 mm 1 mps 740 mmHg 94%
    03:00 +11°C° 0 mm 1 mps 739 mmHg 95%
    04:00 +12°C° 0 mm 1 mps 739 mmHg 95%
    05:00 +12°C° 0 mm 2 mps 739 mmHg 96%
    06:00 +13°C° 0 mm 1 mps 739 mmHg 93%
    07:00 +15°C° 0 mm 1 mps 739 mmHg 90%
    08:00 +16°C° 0 mm 1 mps 739 mmHg 87%
    09:00 +18°C° 0 mm 1 mps 739 mmHg 83%
    10:00 +19°C° 0 mm 1 mps 739 mmHg 79%
    11:00 +20°C° 0 mm 1 mps 739 mmHg 75%
    12:00 +21°C° 0.1 mm 1 mps 738 mmHg 72%
    13:00 +22°C° 0.1 mm 1 mps 738 mmHg 69%
    14:00 +21°C° 0.1 mm 0 mps 738 mmHg 66%
    15:00 +20°C° 0.4 mm 0 mps 738 mmHg 68%
    16:00 +22°C° 0.4 mm 1 mps 737 mmHg 69%
    17:00 +22°C° 0.4 mm 1 mps 737 mmHg 70%
    18:00 +20°C° 0.2 mm 1 mps 737 mmHg 76%
    19:00 +19°C° 0.2 mm 1 mps 737 mmHg 82%
    20:00 +16°C° 0.2 mm 2 mps 737 mmHg 88%
    21:00 +15°C° 0.2 mm 2 mps 737 mmHg 90%
    22:00 +15°C° 0.2 mm 2 mps 736 mmHg 92%
    23:00 +14°C° 0.2 mm 2 mps 736 mmHg 93%

    Day after tomorrow, 17 July, Wednesday

    Time Temperature Precipitation Wind Pressure Humidity
    00:00 +14°C° 0.2 mm 1 mps 736 mmHg 93%
    01:00 +14°C° 0.2 mm 1 mps 736 mmHg 93%
    02:00 +13°C° 0.2 mm 1 mps 736 mmHg 93%
    03:00 +14°C° 0.3 mm 1 mps 736 mmHg 93%
    04:00 +14°C° 0.3 mm 1 mps 736 mmHg 94%
    05:00 +14°C° 0.3 mm 1 mps 735 mmHg 95%
    06:00 +14°C° 0.4 mm 1 mps 735 mmHg 94%
    07:00 +14°C° 0.4 mm 1 mps 735 mmHg 94%
    08:00 +15°C° 0.4 mm 1 mps 735 mmHg 94%
    09:00 +15°C° 0.3 mm 1 mps 735 mmHg 91%
    10:00 +16°C° 0.3 mm 1 mps 735 mmHg 88%
    11:00 +17°C° 0.3 mm 2 mps 735 mmHg 85%
    12:00 +17°C° 0.8 mm 2 mps 735 mmHg 83%
    13:00 +18°C° 0.8 mm 2 mps 735 mmHg 81%
    14:00 +18°C° 0.8 mm 2 mps 735 mmHg 79%
    15:00 +19°C° 1 mm 2 mps 734 mmHg 80%
    16:00 +20°C° 1 mm 1 mps 734 mmHg 80%
    17:00 +20°C° 1 mm 1 mps 734 mmHg 80%
    18:00 +18°C° 0.4 mm 1 mps 734 mmHg 85%
    19:00 +16°C° 0.4 mm 1 mps 734 mmHg 88%
    20:00 +15°C° 0.4 mm 1 mps 734 mmHg 91%
    21:00 +14°C° 0 mm 1 mps 734 mmHg 92%
    22:00 +13°C° 0 mm 1 mps 734 mmHg 93%
    23:00 +13°C° 0 mm 1 mps 733 mmHg 94%

    18 July, Thursday

    Time Temperature Precipitation Wind Pressure Humidity
    00:00 +12°C° 0 mm 1 mps 733 mmHg 94%
    01:00 +12°C° 0 mm 2 mps 733 mmHg 95%
    02:00 +12°C° 0 mm 2 mps 733 mmHg 96%
    03:00 +12°C° 0 mm 2 mps 733 mmHg 96%
    04:00 +12°C° 0 mm 2 mps 733 mmHg 97%
    05:00 +12°C° 0 mm 2 mps 733 mmHg 97%
    06:00 +13°C° 0.1 mm 2 mps 733 mmHg 95%
    07:00 +15°C° 0.1 mm 2 mps 733 mmHg 93%
    08:00 +16°C° 0.1 mm 2 mps 733 mmHg 90%
    09:00 +17°C° 0.9 mm 3 mps 733 mmHg 88%
    10:00 +17°C° 0.9 mm 3 mps 733 mmHg 86%
    11:00 +18°C° 0.9 mm 4 mps 733 mmHg 83%
    12:00 +18°C° 0.9 mm 4 mps 733 mmHg 84%
    13:00 +17°C° 0.9 mm 5 mps 733 mmHg 84%
    14:00 +16°C° 0.9 mm 5 mps 733 mmHg 85%
    15:00 +17°C° 0.2 mm 4 mps 734 mmHg 87%
    16:00 +15°C° 0.2 mm 4 mps 734 mmHg 88%
    17:00 +16°C° 0.2 mm 3 mps 734 mmHg 90%
    18:00 +14°C° 0 mm 3 mps 734 mmHg 92%
    19:00 +14°C° 0 mm 2 mps 734 mmHg 94%
    20:00 +14°C° 0 mm 2 mps 734 mmHg 97%
    21:00 +13°C° 0 mm 1 mps 734 mmHg 97%
    22:00 +13°C° 0 mm 1 mps 734 mmHg 97%
    23:00 +13°C° 0 mm 1 mps 734 mmHg 98%

    19 July, Friday

    Time Temperature Precipitation Wind Pressure Humidity
    00:00 +13°C° 0.1 mm 1 mps 734 mmHg 98%
    01:00 +13°C° 0.1 mm 1 mps 734 mmHg 98%
    02:00 +13°C° 0.1 mm 2 mps 735 mmHg 98%
    03:00 +14°C° 0.1 mm 2 mps 735 mmHg 98%
    04:00 +14°C° 0.1 mm 2 mps 735 mmHg 97%
    05:00 +14°C° 0.1 mm 2 mps 735 mmHg 97%
    06:00 +15°C° 0.1 mm 2 mps 735 mmHg 96%
    07:00 +16°C° 0.1 mm 3 mps 736 mmHg 94%
    08:00 +16°C° 0.1 mm 3 mps 736 mmHg 92%
    09:00 +15°C° 0.9 mm 4 mps 736 mmHg 93%
    10:00 +15°C° 0.9 mm 4 mps 736 mmHg 93%
    11:00 +16°C° 0.9 mm 5 mps 737 mmHg 93%
    12:00 +15°C° 0.4 mm 5 mps 737 mmHg 94%
    13:00 +14°C° 0.4 mm 5 mps 737 mmHg 95%
    14:00 +13°C° 0.4 mm 5 mps 737 mmHg 96%
    15:00 +13°C° 0.1 mm 5 mps 738 mmHg 96%
    16:00 +13°C° 0.1 mm 5 mps 738 mmHg 96%
    17:00 +13°C° 0.1 mm 5 mps 738 mmHg 96%
    18:00 +14°C° 0 mm 5 mps 739 mmHg 96%
    19:00 +14°C° 0 mm 5 mps 739 mmHg 96%
    20:00 +14°C° 0 mm 4 mps 739 mmHg 96%
    21:00 +14°C° 0 mm 4 mps 739 mmHg 96%
    22:00 +14°C° 0 mm 4 mps 740 mmHg 96%
    23:00 +14°C° 0 mm 4 mps 740 mmHg 96%

    20 July, Saturday

    Time Temperature Precipitation Wind Pressure Humidity
    00:00 +14°C° 0 mm 4 mps 740 mmHg 96%
    01:00 +14°C° 0 mm 4 mps 741 mmHg 97%
    02:00 +13°C° 0 mm 4 mps 741 mmHg 97%
    03:00 +13°C° 0 mm 4 mps 741 mmHg 97%
    04:00 +14°C° 0 mm 3 mps 742 mmHg 97%
    05:00 +14°C° 0 mm 3 mps 742 mmHg 96%
    06:00 +14°C° 0 mm 3 mps 742 mmHg 94%
    07:00 +16°C° 0 mm 3 mps 743 mmHg 92%
    08:00 +15°C° 0 mm 4 mps 743 mmHg 91%
    09:00 +17°C° 0.1 mm 4 mps 743 mmHg 88%
    10:00 +18°C° 0.1 mm 4 mps 744 mmHg 85%
    11:00 +19°C° 0.1 mm 4 mps 744 mmHg 83%
    12:00 +20°C° 0.5 mm 4 mps 744 mmHg 82%
    13:00 +20°C° 0.5 mm 4 mps 744 mmHg 81%
    14:00 +21°C° 0.5 mm 4 mps 744 mmHg 80%
    15:00 +21°C° 0.7 mm 4 mps 744 mmHg 81%
    16:00 +21°C° 0.7 mm 4 mps 744 mmHg 82%
    17:00 +21°C° 0.7 mm 4 mps 745 mmHg 83%
    18:00 +19°C° 0.2 mm 3 mps 745 mmHg 86%
    19:00 +18°C° 0.2 mm 3 mps 745 mmHg 89%
    20:00 +17°C° 0.2 mm 2 mps 745 mmHg 92%
    21:00 +16°C° 0 mm 2 mps 745 mmHg 93%
    22:00 +16°C° 0 mm 2 mps 745 mmHg 93%
    23:00 +15°C° 0 mm 2 mps 745 mmHg 94%
    Show more